Temperature
14 13 13 13 14 14 14 14 14 14 14 14 14 14 14 14 14 14 15 15 15 15 15 15 15 15 15 15 15 15 15 15 15 15 15 15 15 15 15 15 15 15 15
14 13 13 13 13 14 14 14 14 14 14 14 14 14 14 14 14 14 14 15 15 15 15 15 14 14 14 14 14 14 15 14 14 15 14 14 14 15 15 15 15 14 14
14 13 13 13 13 13 14 14 14 14 14 14 14 14 14 14 14 14 14 14 14 14 14 14 14 14 14 14 14 14 14 14 14 14 14 14 14 14 14 14 14 14 14
13 13 13 13 13 13 13 13 13 14 13 14 14 14 14 14 14 14 14 14 14 14 14 14 14 14 14 14 14 14 14 14 14 14 14 14 14 14 14 14 14 14 14
13 13 13 13 13 13 13 13 13 13 13 13 13 13 13 13 14 14 14 14 14 14 14 14 14 14 14 14 14 14 14 14 14 14 14 14 14 14 14 14 14 14 14
13 13 13 13 13 13 13 13 13 13 13 13 13 13 13 13 13 13 13 14 13 13 14 13 13 13 13 14 14 13 13 14 14 14 14 14 13 13 14 14 14 14 14
13 12 12 12 12 12 13 13 13 13 13 13 13 13 13 13 13 13 13 13 13 13 13 13 13 13 13 13 13 13 13 13 13 13 13 13 13 13 13 13 13 13 13
12 12 12 12 12 12 12 12 12 12 12 13 13 13 13 13 13 13 13 13 13 13 13 13 13 13 13 13 13 13 13 13 13 13 13 13 13 13 13 13 13 13 13
12 12 12 12 12 12 12 12 12 12 12 12 12 12 12 12 12 12 13 13 13 13 13 13 13 12 12 13 13 13 13 13 13 13 13 13 13 13 13 13 13 13 13
11 11 11 11 11 11 11 11 11 12 12 12 12 12 12 12 12 12 12 12 12 12 12 12 12 12 12 12 12 13 12 12 12 12 12 12 12 12 13 13 13 12 12
11 11 11 11 11 11 11 11 11 11 11 11 12 11 11 12 12 12 12 12 12 12 12 12 12 12 12 12 12 12 12 12 12 12 12 12 12 12 12 12 12 12 12
11 11 11 11 11 11 11 11 11 11 11 11 11 11 11 11 11 11 11 11 11 11 11 11 12 12 12 12 12 12 12 12 12 12 11 11 12 12 12 12 12 12 12
10 10 10 10 10 10 10 10 10 10 10 10 11 11 11 11 11 11 11 11 11 11 11 11 11 11 11 11 11 11 11 11 11 11 11 11 11 11 11 11 11 11 11
10 10 10 10 10 10 10 10 10 10 10 10 10 10 10 10 10 11 11 11 11 11 11 11 11 11 11 11 11 11 11 11 11 11 11 11 11 11 11 11 11 11 11
9 9 9 9 9 9 10 10 10 10 10 10 10 10 10 10 10 10 10 10 10 10 10 10 10 10 11 11 11 11 11 11 10 11 11 10 10 10 10 10 10 11 10
9 9 9 9 9 9 9 9 9 9 9 9 9 10 10 10 10 10 10 10 10 10 10 10 10 10 10 10 10 10 10 10 10 10 10 10 10 10 10 10 10 10 10
9 9 9 8 8 8 8 9 9 9 9 9 9 9 9 9 9 9 9 9 9 9 9 9 9 10 10 10 10 10 10 10 10 10 10 10 10 10 10 10 9 9 9
8 8 8 8 8 8 8 8 8 8 8 8 8 8 8 9 9 9 9 9 9 9 9 9 9 9 9 9 9 9 9 9 9 9 9 9 9 9 9 9 9 9 9
8 8 8 8 8 8 8 8 8 8 8 8 8 8 8 8 8 8 8 8 8 8 8 8 8 9 9 9 9 9 9 9 9 9 9 9 9 9 9 9 9 9 8
7 7 7 7 7 7 7 7 7 7 7 7 7 7 7 7 7 8 8 8 8 8 8 8 8 8 8 8 8 8 8 8 8 8 8 8 8 8 8 8 8 8 8
7 7 7 7 7 7 7 7 7 7 7 7 7 7 7 7 7 7 7 7 7 7 8 7 7 7 7 8 8 7 7 7 7 8 8 8 8 8 8 8 8 8 8
6 6 6 6 6 6 6 6 6 6 6 6 6 6 6 6 6 6 7 7 7 7 7 7 7 7 7 7 7 7 6 6 6 7 7 7 7 7 7 7 7 7 7
6 6 6 6 6 6 6 6 6 5 5 5 5 6 5 5 6 6 6 6 6 6 6 6 6 6 6 6 6 6 6 6 6 6 6 7 7 7 7 7 7 7 7
5 5 5 5 5 5 5 5 5 5 5 5 5 5 5 5 5 5 5 5 6 6 6 6 6 6 6 6 6 6 6 6 5 5 5 6 6 6 6 6 6 6 6
4 5 5 5 5 5 5 5 5 5 5 5 5 4 4 4 4 5 5 5 5 5 5 5 5 5 5 5 5 5 6 5 5 5 4 5 5 5 6 6 6 6 6
4 4 4 4 4 4 4 4 4 4 4 4 4 4 4 4 4 4 4 4 4 4 5 5 5 5 5 5 5 5 5 5 5 5 4 4 4 5 5 5 5 5 5
Wind_Speed
2 4 7 7 7 9 10 11 11 12 12 12 12 13 13 13 13 13 13 13 13 14 14 15 15 15 16 16 17 17 17 17 17 18 18 18 18 19 18 18 17 17 19
4 6 8 8 8 10 10 11 11 11 11 12 12 12 12 13 13 13 13 13 13 13 14 15 15 15 15 16 16 16 17 17 18 17 17 16 17 18 18 18 17 17 19
5 6 8 9 10 10 11 11 10 10 11 11 11 12 12 12 12 13 13 13 13 13 13 14 14 15 15 15 16 16 16 17 17 16 15 14 15 17 18 18 18 18 19
7 6 7 10 11 11 11 11 10 10 10 11 11 11 11 11 12 12 13 13 13 13 13 14 14 14 14 15 15 16 16 16 16 14 13 12 13 16 17 18 18 18 18
6 6 7 10 10 11 11 10 10 10 10 10 11 10 11 11 11 12 12 12 12 13 13 13 14 14 14 14 15 15 15 16 15 14 13 12 12 15 17 17 17 18 18
6 7 7 10 10 10 10 10 10 10 10 10 10 10 10 10 11 12 12 12 12 13 13 13 13 13 14 14 14 15 15 15 14 14 13 12 12 15 16 17 17 17 18
6 7 8 10 10 10 10 10 10 10 9 9 10 10 10 10 11 12 12 12 12 12 12 13 13 13 13 14 14 14 14 14 13 13 12 12 13 15 16 16 16 16 16
7 7 8 9 10 10 10 10 10 9 10 9 9 10 10 10 10 11 11 11 11 12 12 12 12 13 13 14 14 14 13 12 12 12 12 12 14 14 15 15 15 15 15
7 7 7 8 8 9 10 10 10 10 10 10 9 9 9 10 10 10 10 10 11 11 11 11 12 13 13 13 14 14 13 12 11 10 11 11 13 14 13 14 14 15 15
6 6 6 7 8 7 8 9 10 9 9 10 9 9 9 9 9 9 9 10 10 11 11 11 12 13 13 13 14 13 13 11 11 10 10 11 13 13 13 13 14 14 14
4 4 5 6 7 7 7 7 9 8 9 9 9 8 8 8 8 8 9 9 9 10 11 11 11 12 12 13 13 13 11 9 10 9 10 12 12 12 12 13 13 13 14
4 3 4 5 6 7 6 7 7 7 7 8 8 8 7 8 8 8 9 10 9 9 10 10 10 10 10 10 10 10 9 9 9 8 10 11 12 11 12 12 12 13 13
4 4 3 5 6 6 5 6 6 6 6 7 8 8 8 8 7 7 7 8 8 8 8 8 8 8 8 9 8 9 9 9 8 8 9 11 11 11 11 11 11 12 12
3 4 3 4 5 5 6 5 6 6 6 6 6 8 7 6 5 5 5 6 6 6 6 7 7 7 8 9 9 9 9 8 8 7 8 10 10 10 10 10 10 11 11
4 3 3 3 4 4 5 5 5 5 5 6 6 7 7 6 4 4 4 5 5 5 5 5 5 6 6 7 7 8 7 7 7 7 7 9 10 10 9 9 9 9 10
4 4 4 4 4 4 4 4 4 5 5 6 5 6 7 6 5 4 4 4 4 5 5 5 5 5 5 5 6 7 7 7 7 7 6 7 8 8 8 9 9 9 9
4 4 4 4 4 4 4 4 4 4 5 5 5 6 6 6 5 5 4 3 3 5 6 6 5 5 5 5 5 6 6 6 6 6 6 6 6 7 7 8 8 8 8
3 4 4 4 4 3 3 4 4 4 5 4 5 5 6 6 6 5 4 3 4 5 5 4 3 3 3 3 3 3 4 5 5 5 6 6 6 5 6 7 7 7 6
4 5 5 4 4 3 3 4 4 4 4 4 5 5 5 6 5 5 4 4 5 5 4 4 3 3 3 3 3 3 3 3 4 5 5 5 5 5 5 5 5 5 5
4 4 4 4 4 3 3 3 3 3 3 3 4 4 5 5 5 5 4 4 5 4 3 4 3 3 3 4 4 4 3 3 4 4 3 4 4 5 5 5 4 4 4
2 3 3 4 4 3 3 3 3 3 2 2 2 4 5 5 5 4 3 3 3 3 4 4 4 4 3 3 4 3 3 3 2 2 3 3 3 3 5 5 4 4 4
2 3 3 4 3 4 4 3 3 3 2 2 2 3 4 5 5 5 4 3 3 4 4 4 4 3 2 2 3 3 1 2 2 2 1 1 1 3 3 4 4 5 5
1 3 3 4 4 3 3 3 2 2 2 1 2 2 2 4 5 5 4 4 3 4 5 4 5 5 3 1 1 2 3 3 1 2 2 1 1 1 2 3 4 4 4
2 3 3 3 3 3 3 4 5 4 3 3 3 2 2 3 4 5 4 4 4 3 4 5 4 4 4 3 0 1 1 3 2 0 2 2 1 1 2 2 3 4 4
2 2 3 3 2 2 3 5 5 4 3 2 3 3 2 1 3 4 5 4 3 3 3 4 4 4 4 4 2 1 1 1 1 2 2 1 1 1 1 2 3 3 4
1 1 2 3 3 3 3 4 5 5 4 4 3 4 3 2 1 2 4 4 4 3 3 4 5 5 4 3 2 2 3 3 2 2 2 2 1 1 1 1 2 4 4
Wind_Direction
198 183 150 134 123 118 114 109 105 101 97 98 99 100 100 99 99 95 92 91 89 87 86 86 85 85 85 86 84 81 81 82 83 82 81 83 86 86 85 82 78 78 84
173 165 147 135 126 119 117 112 106 102 100 100 103 103 103 100 99 98 96 93 91 89 89 87 86 85 85 86 86 84 84 83 83 81 78 79 84 86 86 85 83 82 82
134 144 145 135 126 122 116 116 111 106 103 101 101 103 104 101 99 98 98 96 94 92 91 90 89 87 86 87 87 87 86 84 82 79 76 76 82 86 86 86 87 86 85
124 128 136 132 127 123 117 113 114 111 108 104 102 103 105 106 103 102 100 99 97 95 93 92 90 89 89 89 90 88 86 83 80 78 73 75 83 88 87 87 88 88 87
112 117 127 126 126 123 119 115 113 112 110 107 105 105 104 108 108 105 103 100 98 97 95 94 92 91 92 92 92 90 88 84 79 76 73 75 84 90 89 88 88 88 88
108 113 124 121 119 120 123 120 115 110 109 108 107 107 104 106 110 106 104 103 101 99 97 96 93 93 94 94 94 94 90 85 80 75 77 80 86 91 91 90 89 88 89
108 109 121 119 117 115 116 119 114 111 107 106 108 106 104 103 108 109 107 106 105 103 101 99 96 95 96 96 97 97 92 88 83 77 78 83 89 92 92 90 90 89 89
112 110 117 118 115 113 110 106 110 109 108 103 107 105 102 103 103 107 109 110 110 107 105 102 100 97 96 98 99 98 93 90 86 81 82 88 91 93 93 92 93 94 94
106 103 103 108 112 110 106 101 97 98 106 102 98 97 97 100 101 105 107 109 111 110 108 105 103 100 99 98 100 98 92 89 86 86 87 91 93 92 96 96 97 97 97
95 96 98 104 104 103 104 102 98 95 99 103 97 91 86 94 97 99 102 106 107 108 107 105 104 103 100 97 98 97 92 87 85 89 90 95 95 93 96 96 96 97 97
104 98 101 103 104 106 107 107 103 99 96 95 93 92 88 86 92 94 97 102 103 104 102 101 103 103 98 96 95 93 89 88 87 90 95 101 99 97 95 98 98 98 98
142 134 107 110 108 108 110 107 103 97 96 91 92 92 93 86 86 93 95 96 97 97 98 97 98 96 93 91 89 87 86 89 88 90 101 106 105 102 99 100 101 100 99
163 142 124 118 117 115 111 111 105 100 96 92 91 91 94 87 83 85 88 88 89 90 88 90 87 86 89 92 91 89 88 89 89 92 105 110 111 110 107 103 103 105 104
149 153 139 120 120 121 121 115 108 103 101 100 97 96 94 87 82 82 81 85 82 83 85 88 90 88 88 91 96 95 90 91 91 93 99 111 112 115 113 110 104 106 107
157 160 153 126 124 126 119 113 110 106 113 115 111 108 105 97 97 96 90 87 85 85 88 89 94 94 89 87 92 97 94 94 94 93 95 103 111 114 115 117 116 111 112
176 173 161 137 129 129 123 118 119 121 124 120 115 120 118 110 108 112 103 96 93 94 94 99 100 100 93 93 92 92 94 94 90 89 90 94 99 108 114 115 116 116 113
183 173 163 151 135 135 133 131 129 129 129 126 128 131 125 121 116 115 113 106 103 106 100 95 91 93 91 87 90 88 88 91 91 85 85 89 90 93 108 112 113 117 117
169 169 165 151 147 144 136 135 134 134 133 134 135 133 129 127 124 118 115 116 116 111 104 101 99 100 91 85 84 84 86 88 90 92 89 86 87 90 98 103 108 113 117
174 169 169 165 165 162 145 131 132 134 135 137 134 131 133 133 131 128 120 121 120 111 106 109 108 114 113 103 97 82 80 82 82 86 86 88 89 87 92 95 98 103 111
166 158 163 170 168 161 144 124 114 116 118 127 134 136 137 137 135 132 127 120 123 116 113 115 119 103 121 122 103 77 59 63 72 75 86 95 96 95 93 92 92 99 106
143 154 166 168 173 161 161 163 159 170 163 136 135 144 143 144 143 136 133 129 129 135 139 132 121 118 109 114 104 79 33 31 46 45 69 86 89 102 107 101 94 99 103
165 175 181 184 178 175 176 179 172 168 166 150 136 138 145 148 149 152 148 156 147 143 138 135 123 131 139 129 125 125 84 6 351 0 22 95 105 104 112 117 109 107 112
184 198 198 199 190 184 172 153 140 130 123 146 166 160 161 161 159 163 168 167 161 159 163 161 153 146 161 186 113 138 151 197 265 328 337 3 150 124 118 133 127 123 124
223 219 200 193 186 185 170 168 170 175 183 196 189 183 182 164 155 159 165 170 171 167 170 172 164 159 154 166 214 10 126 145 156 218 322 355 24 142 147 148 145 145 138
215 219 207 191 186 184 178 176 180 186 188 181 174 173 177 162 162 167 165 166 170 175 178 174 172 170 168 171 172 154 111 74 124 158 209 282 346 308 209 175 164 163 159
226 218 214 188 195 195 184 180 180 184 183 179 186 189 192 188 178 182 175 175 178 182 186 188 182 182 185 181 182 167 156 158 171 154 181 206 236 277 281 209 192 183 181
Height
1526 1527 1529 1530 1532 1533 1533 1534 1535 1536 1536 1537 1538 1538 1539 1539 1540 1540 1541 1541 1541 1542 1542 1542 1543 1543 1543 1543 1543 1543 1543 1543 1543 1543 1543 1543 1543 1543 1543 1543 1543 1543 1543
1525 1527 1529 1530 1532 1533 1533 1534 1535 1536 1537 1538 1538 1539 1539 1540 1540 1541 1541 1542 1542 1543 1543 1543 1543 1544 1544 1544 1544 1544 1544 1545 1545 1545 1545 1545 1545 1545 1545 1545 1545 1545 1545
1524 1526 1528 1530 1531 1532 1533 1534 1535 1536 1537 1538 1539 1539 1540 1541 1541 1542 1542 1542 1543 1543 1544 1544 1544 1544 1545 1545 1545 1546 1546 1546 1546 1547 1547 1547 1547 1547 1547 1547 1547 1548 1548
1524 1526 1528 1530 1531 1532 1533 1534 1535 1536 1537 1538 1539 1539 1540 1541 1541 1542 1542 1543 1544 1544 1544 1545 1545 1545 1546 1546 1546 1547 1547 1547 1548 1548 1549 1549 1549 1550 1550 1549 1549 1550 1550
1524 1526 1527 1529 1531 1532 1533 1534 1535 1536 1537 1538 1539 1540 1540 1541 1542 1542 1543 1543 1544 1544 1545 1545 1546 1546 1546 1547 1547 1548 1548 1549 1549 1550 1550 1551 1551 1551 1551 1551 1551 1552 1552
1524 1526 1527 1529 1530 1531 1533 1534 1535 1536 1537 1538 1539 1540 1540 1541 1542 1542 1543 1544 1544 1545 1545 1546 1546 1547 1547 1548 1548 1549 1550 1550 1551 1551 1552 1552 1552 1553 1553 1553 1553 1554 1554
1523 1525 1527 1528 1530 1531 1532 1533 1534 1535 1536 1537 1538 1539 1540 1541 1542 1542 1543 1544 1544 1545 1546 1546 1547 1547 1548 1548 1549 1550 1551 1551 1552 1552 1553 1553 1554 1554 1554 1555 1555 1555 1556
1523 1524 1526 1528 1529 1530 1531 1532 1533 1535 1535 1536 1538 1539 1540 1541 1542 1542 1543 1544 1545 1545 1546 1546 1547 1548 1549 1549 1550 1551 1551 1552 1553 1553 1554 1554 1555 1555 1556 1556 1556 1557 1557
1523 1524 1525 1527 1528 1529 1531 1532 1533 1534 1535 1536 1537 1539 1540 1540 1541 1542 1543 1544 1544 1545 1546 1547 1547 1548 1549 1550 1551 1551 1552 1553 1554 1554 1555 1555 1556 1556 1557 1557 1558 1558 1558
1522 1523 1524 1526 1527 1528 1530 1531 1532 1533 1534 1535 1536 1537 1539 1540 1541 1542 1543 1544 1544 1545 1545 1546 1547 1548 1549 1550 1551 1552 1553 1554 1554 1555 1556 1557 1557 1558 1558 1558 1558 1559 1559
1521 1522 1523 1525 1526 1527 1528 1530 1531 1532 1533 1534 1535 1537 1538 1539 1540 1541 1542 1543 1544 1545 1545 1546 1547 1548 1549 1550 1551 1552 1553 1554 1555 1556 1557 1557 1558 1558 1558 1559 1559 1560 1560
1519 1520 1522 1523 1525 1526 1527 1528 1530 1531 1532 1533 1534 1536 1537 1538 1539 1540 1541 1542 1543 1544 1545 1545 1546 1547 1548 1550 1551 1552 1553 1554 1555 1556 1557 1558 1558 1559 1559 1560 1560 1560 1561
1517 1519 1520 1522 1523 1524 1526 1527 1528 1529 1531 1532 1533 1534 1536 1536 1538 1539 1540 1541 1542 1543 1544 1545 1546 1547 1548 1549 1551 1552 1553 1554 1555 1556 1557 1558 1559 1559 1560 1560 1561 1561 1561
1515 1517 1519 1520 1522 1523 1524 1525 1526 1528 1529 1530 1531 1533 1534 1535 1537 1538 1539 1540 1541 1542 1543 1544 1545 1547 1548 1549 1550 1551 1552 1554 1555 1556 1557 1558 1559 1560 1560 1560 1561 1561 1562
1513 1515 1517 1518 1520 1521 1522 1523 1525 1526 1527 1528 1530 1531 1533 1534 1535 1536 1537 1538 1539 1541 1542 1543 1544 1546 1547 1548 1549 1551 1552 1553 1554 1555 1556 1557 1558 1559 1560 1561 1561 1561 1562
1511 1513 1514 1516 1517 1519 1520 1521 1523 1524 1525 1527 1528 1529 1531 1532 1533 1534 1535 1536 1538 1539 1540 1542 1543 1545 1546 1547 1548 1550 1551 1552 1553 1554 1555 1556 1557 1558 1559 1560 1561 1561 1562
1509 1510 1512 1513 1515 1517 1518 1519 1520 1522 1523 1525 1526 1527 1529 1530 1531 1532 1533 1535 1536 1537 1539 1540 1542 1543 1544 1546 1547 1549 1550 1551 1552 1553 1555 1555 1556 1557 1558 1559 1560 1561 1561
1507 1508 1509 1511 1513 1514 1516 1517 1518 1520 1521 1522 1524 1525 1526 1528 1529 1530 1531 1533 1534 1535 1537 1538 1540 1541 1543 1544 1546 1547 1548 1550 1551 1552 1553 1554 1555 1556 1557 1558 1559 1560 1560
1504 1505 1507 1508 1510 1512 1513 1514 1516 1517 1519 1520 1522 1523 1524 1525 1527 1528 1529 1531 1532 1533 1534 1536 1538 1539 1541 1542 1544 1545 1547 1548 1549 1550 1551 1552 1553 1554 1555 1556 1557 1558 1559
1501 1503 1504 1506 1507 1509 1510 1512 1513 1515 1516 1517 1519 1520 1522 1523 1524 1526 1527 1528 1530 1531 1532 1534 1535 1537 1539 1540 1541 1543 1544 1546 1547 1548 1549 1550 1551 1552 1553 1554 1556 1557 1557
1498 1500 1501 1503 1504 1505 1507 1508 1509 1511 1513 1514 1516 1517 1518 1520 1522 1523 1524 1526 1527 1528 1529 1531 1533 1535 1536 1538 1539 1540 1542 1544 1544 1545 1546 1547 1549 1550 1551 1552 1553 1555 1555
1495 1497 1499 1500 1501 1502 1503 1505 1507 1508 1509 1511 1513 1514 1515 1517 1518 1520 1522 1523 1524 1526 1527 1528 1530 1531 1533 1535 1536 1537 1539 1542 1542 1543 1544 1545 1546 1547 1548 1550 1551 1552 1553
1492 1494 1495 1496 1497 1499 1500 1502 1504 1505 1506 1508 1509 1510 1512 1514 1515 1517 1519 1520 1521 1523 1524 1525 1527 1529 1530 1532 1534 1535 1536 1537 1538 1540 1540 1541 1542 1543 1545 1546 1548 1549 1550
1489 1491 1492 1493 1494 1495 1497 1498 1500 1500 1502 1503 1505 1507 1509 1510 1512 1513 1515 1517 1518 1520 1521 1523 1524 1526 1527 1529 1531 1532 1534 1534 1536 1536 1537 1538 1539 1540 1542 1543 1544 1546 1547
1486 1487 1488 1490 1491 1492 1493 1494 1496 1497 1499 1500 1502 1504 1505 1507 1508 1510 1512 1513 1515 1516 1518 1519 1521 1523 1524 1526 1527 1529 1530 1531 1532 1533 1533 1535 1536 1537 1539 1540 1541 1542 1543
1484 1484 1485 1486 1488 1489 1490 1491 1492 1494 1495 1497 1498 1500 1501 1503 1505 1507 1508 1509 1511 1513 1514 1516 1518 1519 1521 1522 1524 1525 1526 1527 1528 1529 1530 1531 1532 1534 1535 1536 1537 1539 1540